Year,Month,Day,Hour,Minute,Value (Times are PST for temperature in C)
2016,01,20,00,00,6.90
2016,01,20,00,01,6.90
2016,01,20,00,02,6.90
2016,01,20,00,03,6.90
2016,01,20,00,04,6.90
2016,01,20,00,05,6.90
2016,01,20,00,06,6.90
2016,01,20,00,07,6.90
2016,01,20,00,08,6.90
2016,01,20,00,09,6.90
2016,01,20,00,10,6.90
2016,01,20,00,11,6.90
2016,01,20,00,12,6.90
2016,01,20,00,13,6.90
2016,01,20,00,14,6.90
2016,01,20,00,15,6.90
2016,01,20,00,16,6.90
2016,01,20,00,17,6.90
2016,01,20,00,18,6.90
2016,01,20,00,19,6.90
2016,01,20,00,20,6.90
2016,01,20,00,21,6.90
2016,01,20,00,22,6.90
2016,01,20,00,23,6.90
2016,01,20,00,24,6.90
2016,01,20,00,25,6.90
2016,01,20,00,26,6.80
2016,01,20,00,27,6.90
2016,01,20,00,28,6.80
2016,01,20,00,29,6.80
2016,01,20,00,30,6.80
2016,01,20,00,31,6.80
2016,01,20,00,32,6.80
2016,01,20,00,33,6.80
2016,01,20,00,34,6.80
2016,01,20,00,35,6.80
2016,01,20,00,36,6.80
2016,01,20,00,37,6.80
2016,01,20,00,38,6.80
2016,01,20,00,39,6.80
2016,01,20,00,40,6.80
2016,01,20,00,41,6.80
2016,01,20,00,42,6.80
2016,01,20,00,43,6.80
2016,01,20,00,44,6.80
2016,01,20,00,45,6.70
2016,01,20,00,46,6.70
2016,01,20,00,47,6.70
2016,01,20,00,48,6.70
2016,01,20,00,49,6.70
2016,01,20,00,50,6.70
2016,01,20,00,51,6.70
2016,01,20,00,52,6.70
2016,01,20,00,53,6.70
2016,01,20,00,54,6.70
2016,01,20,00,55,6.70
2016,01,20,00,56,6.70
2016,01,20,00,57,6.70
2016,01,20,00,58,6.70
2016,01,20,00,59,6.70
2016,01,20,01,00,6.70
2016,01,20,01,01,6.70
2016,01,20,01,02,6.70
2016,01,20,01,03,6.70
2016,01,20,01,04,6.70
2016,01,20,01,05,6.60
2016,01,20,01,06,6.60
2016,01,20,01,07,6.60
2016,01,20,01,08,6.60
2016,01,20,01,09,6.60
2016,01,20,01,10,6.60
2016,01,20,01,11,6.50
2016,01,20,01,12,6.50
2016,01,20,01,13,6.50
2016,01,20,01,14,6.50
2016,01,20,01,15,6.50
2016,01,20,01,16,6.50
2016,01,20,01,17,6.50
2016,01,20,01,18,6.50
2016,01,20,01,19,6.50
2016,01,20,01,20,6.50
2016,01,20,01,21,6.60
2016,01,20,01,22,6.60
2016,01,20,01,23,6.60
2016,01,20,01,24,6.60
2016,01,20,01,25,6.60
2016,01,20,01,26,6.60
2016,01,20,01,27,6.60
2016,01,20,01,28,6.50
2016,01,20,01,29,6.50
2016,01,20,01,30,6.50
2016,01,20,01,31,6.50
2016,01,20,01,32,6.50
2016,01,20,01,33,6.50
2016,01,20,01,34,6.40
2016,01,20,01,35,6.40
2016,01,20,01,36,6.40
2016,01,20,01,37,6.40
2016,01,20,01,38,6.40
2016,01,20,01,39,6.40
2016,01,20,01,40,6.40
2016,01,20,01,41,6.30
2016,01,20,01,42,6.30
2016,01,20,01,43,6.30
2016,01,20,01,44,6.30
2016,01,20,01,45,6.20
2016,01,20,01,46,6.20
2016,01,20,01,47,6.20
2016,01,20,01,48,6.10
2016,01,20,01,49,6.10
2016,01,20,01,50,6.10
2016,01,20,01,51,6.10
2016,01,20,01,52,6.10
2016,01,20,01,53,6.10
2016,01,20,01,54,6.10
2016,01,20,01,55,6.10
2016,01,20,01,56,6.00
2016,01,20,01,57,6.00
2016,01,20,01,58,6.00
2016,01,20,01,59,6.00
2016,01,20,02,00,6.00
2016,01,20,02,01,5.90
2016,01,20,02,02,5.90
2016,01,20,02,03,5.90
2016,01,20,02,04,5.80
2016,01,20,02,05,5.80
2016,01,20,02,06,5.70
2016,01,20,02,07,5.70
2016,01,20,02,08,5.70
2016,01,20,02,09,5.60
2016,01,20,02,10,5.60
2016,01,20,02,11,5.60
2016,01,20,02,12,5.60
2016,01,20,02,13,5.50
2016,01,20,02,14,5.50
2016,01,20,02,15,5.50
2016,01,20,02,16,5.40
2016,01,20,02,17,5.40
2016,01,20,02,18,5.40
2016,01,20,02,19,5.30
2016,01,20,02,20,5.30
2016,01,20,02,21,5.30
2016,01,20,02,22,5.30
2016,01,20,02,23,5.30
2016,01,20,02,24,5.30
2016,01,20,02,25,5.30
2016,01,20,02,26,5.30
2016,01,20,02,27,5.40
2016,01,20,02,28,5.50
2016,01,20,02,29,5.50
2016,01,20,02,30,5.60
2016,01,20,02,31,5.60
2016,01,20,02,32,5.60
2016,01,20,02,33,5.60
2016,01,20,02,34,5.60
2016,01,20,02,35,5.60
2016,01,20,02,36,5.50
2016,01,20,02,37,5.50
2016,01,20,02,38,5.50
2016,01,20,02,39,5.50
2016,01,20,02,40,5.40
2016,01,20,02,41,5.40
2016,01,20,02,42,5.40
2016,01,20,02,43,5.30
2016,01,20,02,44,5.30
2016,01,20,02,45,5.30
2016,01,20,02,46,5.30
2016,01,20,02,47,5.30
2016,01,20,02,48,5.20
2016,01,20,02,49,5.20
2016,01,20,02,50,5.20
2016,01,20,02,51,5.20
2016,01,20,02,52,5.20
2016,01,20,02,53,5.10
2016,01,20,02,54,5.10
2016,01,20,02,55,5.10
2016,01,20,02,56,5.00
2016,01,20,02,57,5.00
2016,01,20,02,58,5.00
2016,01,20,02,59,4.90
2016,01,20,03,00,4.90
2016,01,20,03,01,4.90
2016,01,20,03,02,4.80
2016,01,20,03,03,4.80
2016,01,20,03,04,4.80
2016,01,20,03,05,4.80
2016,01,20,03,06,4.70
2016,01,20,03,07,4.70
2016,01,20,03,08,4.70
2016,01,20,03,09,4.70
2016,01,20,03,10,4.70
2016,01,20,03,11,4.70
2016,01,20,03,12,4.60
2016,01,20,03,13,4.60
2016,01,20,03,14,4.60
2016,01,20,03,15,4.60
2016,01,20,03,16,4.50
2016,01,20,03,17,4.50
2016,01,20,03,18,4.50
2016,01,20,03,19,4.40
2016,01,20,03,20,4.40
2016,01,20,03,21,4.40
2016,01,20,03,22,4.40
2016,01,20,03,23,4.40
2016,01,20,03,24,4.40
2016,01,20,03,25,4.50
2016,01,20,03,26,4.50
2016,01,20,03,27,4.50
2016,01,20,03,28,4.50
2016,01,20,03,29,4.40
2016,01,20,03,30,4.40
2016,01,20,03,31,4.30
2016,01,20,03,32,4.30
2016,01,20,03,33,4.30
2016,01,20,03,34,4.20
2016,01,20,03,35,4.20
2016,01,20,03,36,4.20
2016,01,20,03,37,4.10
2016,01,20,03,38,4.10
2016,01,20,03,39,4.10
2016,01,20,03,40,4.10
2016,01,20,03,41,4.10
2016,01,20,03,42,4.10
2016,01,20,03,43,4.10
2016,01,20,03,44,4.00
2016,01,20,03,45,4.00
2016,01,20,03,46,3.90
2016,01,20,03,47,3.90
2016,01,20,03,48,3.90
2016,01,20,03,49,3.90
2016,01,20,03,50,3.80
2016,01,20,03,51,3.80
2016,01,20,03,52,3.80
2016,01,20,03,53,3.80
2016,01,20,03,54,3.70
2016,01,20,03,55,3.70
2016,01,20,03,56,3.70
2016,01,20,03,57,3.70
2016,01,20,03,58,3.70
2016,01,20,03,59,3.70
2016,01,20,04,00,3.60
2016,01,20,04,01,3.60
2016,01,20,04,02,3.60
2016,01,20,04,03,3.60
2016,01,20,04,04,3.60
2016,01,20,04,05,3.60
2016,01,20,04,06,3.60
2016,01,20,04,07,3.60
2016,01,20,04,08,3.60
2016,01,20,04,09,3.60
2016,01,20,04,10,3.60
2016,01,20,04,11,3.70
2016,01,20,04,12,3.60
2016,01,20,04,13,3.60
2016,01,20,04,14,3.60
2016,01,20,04,15,3.60
2016,01,20,04,16,3.60
2016,01,20,04,17,3.60
2016,01,20,04,18,3.60
2016,01,20,04,19,3.50
2016,01,20,04,20,3.50
2016,01,20,04,21,3.50
2016,01,20,04,22,3.40
2016,01,20,04,23,3.30
2016,01,20,04,24,3.30
2016,01,20,04,25,3.20
2016,01,20,04,26,3.20
2016,01,20,04,27,3.20
2016,01,20,04,28,3.10
2016,01,20,04,29,3.10
2016,01,20,04,30,3.10
2016,01,20,04,31,3.10
2016,01,20,04,32,3.10
2016,01,20,04,33,3.10
2016,01,20,04,34,3.10
2016,01,20,04,35,3.10
2016,01,20,04,36,3.10
2016,01,20,04,37,3.10
2016,01,20,04,38,3.10
2016,01,20,04,39,3.10
2016,01,20,04,40,3.10
2016,01,20,04,41,3.10
2016,01,20,04,42,3.20
2016,01,20,04,43,3.20
2016,01,20,04,44,3.20
2016,01,20,04,45,3.20
2016,01,20,04,46,3.20
2016,01,20,04,47,3.20
2016,01,20,04,48,3.20
2016,01,20,04,49,3.10
2016,01,20,04,50,3.10
2016,01,20,04,51,3.00
2016,01,20,04,52,2.90
2016,01,20,04,53,2.90
2016,01,20,04,54,2.90
2016,01,20,04,55,2.90
2016,01,20,04,56,2.80
2016,01,20,04,57,2.80
2016,01,20,04,58,2.90
2016,01,20,04,59,2.90
2016,01,20,05,00,2.90
2016,01,20,05,01,2.80
2016,01,20,05,02,2.80
2016,01,20,05,03,2.80
2016,01,20,05,04,2.80
2016,01,20,05,05,2.80
2016,01,20,05,06,2.80
2016,01,20,05,07,2.80
2016,01,20,05,08,2.80
2016,01,20,05,09,2.80
2016,01,20,05,10,2.90
2016,01,20,05,11,2.90
2016,01,20,05,12,2.90
2016,01,20,05,13,2.90
2016,01,20,05,14,2.90
2016,01,20,05,15,3.00
2016,01,20,05,16,3.00
2016,01,20,05,17,3.00
2016,01,20,05,18,3.10
2016,01,20,05,19,3.00
2016,01,20,05,20,3.00
2016,01,20,05,21,3.00
2016,01,20,05,22,3.00
2016,01,20,05,23,3.00
2016,01,20,05,24,3.00
2016,01,20,05,25,3.00
2016,01,20,05,26,3.00
2016,01,20,05,27,3.00
2016,01,20,05,28,3.00
2016,01,20,05,29,3.00
2016,01,20,05,30,3.00
2016,01,20,05,31,3.00
2016,01,20,05,32,3.00
2016,01,20,05,33,3.00
2016,01,20,05,34,3.00
2016,01,20,05,35,3.00
2016,01,20,05,36,2.90
2016,01,20,05,37,3.00
2016,01,20,05,38,3.00
2016,01,20,05,39,3.00
2016,01,20,05,40,3.10
2016,01,20,05,41,3.10
2016,01,20,05,42,3.20
2016,01,20,05,43,3.20
2016,01,20,05,44,3.20
2016,01,20,05,45,3.30
2016,01,20,05,46,3.30
2016,01,20,05,47,3.30
2016,01,20,05,48,3.30
2016,01,20,05,49,3.30
2016,01,20,05,50,3.30
2016,01,20,05,51,3.30
2016,01,20,05,52,3.30
2016,01,20,05,53,3.20
2016,01,20,05,54,3.20
2016,01,20,05,55,3.20
2016,01,20,05,56,3.20
2016,01,20,05,57,3.20
2016,01,20,05,58,3.20
2016,01,20,05,59,3.20
2016,01,20,06,00,3.20
2016,01,20,06,01,3.20
2016,01,20,06,02,3.20
2016,01,20,06,03,3.20
2016,01,20,06,04,3.20
2016,01,20,06,05,3.20
2016,01,20,06,06,3.20
2016,01,20,06,07,3.30
2016,01,20,06,08,3.20
2016,01,20,06,09,3.20
2016,01,20,06,10,3.20
2016,01,20,06,11,3.20
2016,01,20,06,12,3.20
2016,01,20,06,13,3.20
2016,01,20,06,14,3.20
2016,01,20,06,15,3.20
2016,01,20,06,16,3.20
2016,01,20,06,17,3.20
2016,01,20,08,32,6.40
2016,01,20,08,33,6.40
2016,01,20,08,34,6.40
2016,01,20,08,35,6.40
2016,01,20,08,36,6.40
2016,01,20,08,37,6.50
2016,01,20,08,38,6.50
2016,01,20,08,39,6.50
2016,01,20,08,40,6.50
2016,01,20,08,41,6.50
2016,01,20,08,42,6.60
2016,01,20,08,43,6.60
2016,01,20,08,44,6.60
2016,01,20,08,45,6.60
2016,01,20,08,46,6.60
2016,01,20,08,47,6.60
2016,01,20,08,48,6.60
2016,01,20,08,49,6.60
2016,01,20,08,50,6.60
2016,01,20,08,51,6.60
2016,01,20,08,52,6.60
2016,01,20,08,53,6.60
2016,01,20,08,54,6.70
2016,01,20,08,55,6.70
2016,01,20,08,56,6.70
2016,01,20,08,57,6.70
2016,01,20,08,58,6.70
2016,01,20,08,59,6.70
2016,01,20,09,00,6.80
2016,01,20,09,01,6.80
2016,01,20,09,02,6.80
2016,01,20,09,03,6.80
2016,01,20,09,04,6.80
2016,01,20,09,05,6.80
2016,01,20,09,06,6.80
2016,01,20,09,07,6.80
2016,01,20,09,08,6.80
2016,01,20,09,09,6.80
2016,01,20,09,10,6.80
2016,01,20,09,11,6.80
2016,01,20,09,12,6.90
2016,01,20,09,13,6.90
2016,01,20,09,14,6.90
2016,01,20,09,15,6.90
2016,01,20,09,16,6.90
2016,01,20,09,17,6.90
2016,01,20,09,18,6.90
2016,01,20,09,19,6.90
2016,01,20,09,20,6.90
2016,01,20,09,21,6.90
2016,01,20,09,22,6.90
2016,01,20,09,23,6.90
2016,01,20,09,24,6.90
2016,01,20,09,25,6.90
2016,01,20,09,26,6.90
2016,01,20,09,27,6.90
2016,01,20,09,28,7.00
2016,01,20,09,29,7.00
2016,01,20,09,30,7.00
2016,01,20,09,31,7.00
2016,01,20,09,32,7.00
2016,01,20,09,33,7.00
2016,01,20,09,34,7.00
2016,01,20,09,35,7.00
2016,01,20,09,36,7.00
2016,01,20,09,37,7.00
2016,01,20,09,38,7.00
2016,01,20,09,39,7.00
2016,01,20,09,40,7.00
2016,01,20,09,41,7.00
2016,01,20,09,42,6.90
2016,01,20,09,43,6.90
2016,01,20,09,44,6.90
2016,01,20,09,45,6.90
2016,01,20,09,46,6.90
2016,01,20,09,47,7.00
2016,01,20,09,48,7.00
2016,01,20,09,49,7.00
2016,01,20,09,50,7.00
2016,01,20,09,51,7.00
2016,01,20,09,52,7.00
2016,01,20,09,53,7.00
2016,01,20,09,54,7.00
2016,01,20,09,55,7.00
2016,01,20,09,56,7.00
2016,01,20,09,57,7.00
2016,01,20,09,58,7.00
2016,01,20,09,59,7.00
2016,01,20,10,00,7.00
2016,01,20,10,01,7.00
2016,01,20,10,02,7.00
2016,01,20,10,03,7.10
2016,01,20,10,04,7.10
2016,01,20,10,05,7.10
2016,01,20,10,06,7.10
2016,01,20,10,07,7.10
2016,01,20,10,08,7.10
2016,01,20,10,09,7.10
2016,01,20,10,10,7.10
2016,01,20,10,11,7.10
2016,01,20,10,12,7.10
2016,01,20,10,13,7.10
2016,01,20,10,14,7.10
2016,01,20,10,15,7.10
2016,01,20,10,16,7.10
2016,01,20,10,17,7.10
2016,01,20,10,18,7.10
2016,01,20,10,19,7.20
2016,01,20,10,20,7.20
2016,01,20,10,21,7.20
2016,01,20,10,22,7.20
2016,01,20,10,23,7.20
2016,01,20,10,24,7.20
2016,01,20,10,25,7.20
2016,01,20,10,26,7.20
2016,01,20,10,27,7.20
2016,01,20,10,28,7.20
2016,01,20,10,29,7.20
2016,01,20,10,30,7.20
2016,01,20,10,31,7.20
2016,01,20,10,32,7.20
2016,01,20,10,33,7.20
2016,01,20,10,34,7.20
2016,01,20,10,35,7.20
2016,01,20,10,36,7.20
2016,01,20,10,37,7.20
2016,01,20,10,38,7.20
2016,01,20,10,39,7.20
2016,01,20,10,40,7.20
2016,01,20,10,41,7.20
2016,01,20,10,42,7.20
2016,01,20,10,43,7.20
2016,01,20,10,44,7.20
2016,01,20,10,45,7.30
2016,01,20,10,46,7.30
2016,01,20,10,47,7.30
2016,01,20,10,48,7.30
2016,01,20,10,49,7.40
2016,01,20,10,50,7.40
2016,01,20,10,51,7.50
2016,01,20,10,52,7.50
2016,01,20,10,53,7.60
2016,01,20,10,54,7.60
2016,01,20,10,55,7.60
2016,01,20,10,56,7.60
2016,01,20,10,57,7.60
2016,01,20,10,58,7.70
2016,01,20,10,59,7.70
2016,01,20,11,00,7.70
2016,01,20,11,01,7.70
2016,01,20,11,02,7.70
2016,01,20,11,03,7.70
2016,01,20,11,04,7.70
2016,01,20,11,05,7.70
2016,01,20,11,06,7.70
2016,01,20,11,07,7.70
2016,01,20,11,08,7.70
2016,01,20,11,09,7.70
2016,01,20,11,10,7.70
2016,01,20,11,11,7.70
2016,01,20,11,12,7.70
2016,01,20,11,13,7.70
2016,01,20,11,14,7.70
2016,01,20,11,15,7.70
2016,01,20,11,16,7.70
2016,01,20,11,17,7.70
2016,01,20,11,18,7.70
2016,01,20,11,19,7.70
2016,01,20,11,20,7.70
2016,01,20,11,21,7.70
2016,01,20,11,22,7.70
2016,01,20,11,23,7.70
2016,01,20,11,24,7.70
2016,01,20,11,25,7.80
2016,01,20,11,26,7.80
2016,01,20,11,27,7.80
2016,01,20,11,28,7.80
2016,01,20,11,29,7.80
2016,01,20,11,30,7.80
2016,01,20,11,31,7.80
2016,01,20,11,32,7.80
2016,01,20,11,33,7.80
2016,01,20,11,34,7.80
2016,01,20,11,35,7.80
2016,01,20,11,36,7.80
2016,01,20,11,37,7.90
2016,01,20,11,38,7.90
2016,01,20,11,39,7.90
2016,01,20,11,40,7.90
2016,01,20,11,41,7.90
2016,01,20,11,42,7.90
2016,01,20,11,43,7.90
2016,01,20,11,44,7.90
2016,01,20,11,45,7.90
2016,01,20,11,46,7.90
2016,01,20,11,47,7.90
2016,01,20,11,48,7.90
2016,01,20,11,49,7.90
2016,01,20,11,50,7.90
2016,01,20,11,51,7.90
2016,01,20,11,52,7.90
2016,01,20,11,53,7.90
2016,01,20,11,54,7.90
2016,01,20,11,55,7.90
2016,01,20,11,56,7.90
2016,01,20,11,57,7.90
2016,01,20,11,58,7.90
2016,01,20,11,59,7.90
2016,01,20,12,00,7.90
2016,01,20,12,01,7.90
2016,01,20,12,02,7.90
2016,01,20,12,03,7.90
2016,01,20,12,04,7.90
2016,01,20,12,05,7.90
2016,01,20,12,06,7.90
2016,01,20,12,07,7.90
2016,01,20,12,08,7.90
2016,01,20,12,09,7.90
2016,01,20,12,10,7.90
2016,01,20,12,11,7.90
2016,01,20,12,12,7.90
2016,01,20,12,13,7.90
2016,01,20,12,14,7.90
2016,01,20,12,15,7.90
2016,01,20,12,16,7.90
2016,01,20,12,17,7.90
2016,01,20,12,18,7.90
2016,01,20,12,19,7.90
2016,01,20,12,20,8.00
2016,01,20,12,21,8.00
2016,01,20,12,22,8.00
2016,01,20,12,23,8.00
2016,01,20,12,24,7.90
2016,01,20,12,25,7.90
2016,01,20,12,26,7.90
2016,01,20,12,27,7.90
2016,01,20,12,28,7.90
2016,01,20,12,29,7.90
2016,01,20,12,30,7.90
2016,01,20,12,31,7.90
2016,01,20,12,32,8.00
2016,01,20,12,33,8.00
2016,01,20,12,34,8.00
2016,01,20,12,35,8.00
2016,01,20,12,36,8.00
2016,01,20,12,37,8.00
2016,01,20,12,38,8.00
2016,01,20,12,39,8.00
2016,01,20,12,40,8.00
2016,01,20,12,41,8.00
2016,01,20,12,42,8.00
2016,01,20,12,43,8.00
2016,01,20,12,44,8.00
2016,01,20,12,45,8.10
2016,01,20,12,46,8.10
2016,01,20,12,47,8.10
2016,01,20,12,48,8.00
2016,01,20,12,49,8.10
2016,01,20,12,50,8.10
2016,01,20,12,51,8.00
2016,01,20,12,52,8.10
2016,01,20,12,53,8.10
2016,01,20,12,54,8.10
2016,01,20,12,55,8.10
2016,01,20,12,56,8.10
2016,01,20,12,57,8.10
2016,01,20,12,58,8.10
2016,01,20,12,59,8.10
2016,01,20,13,00,8.10
2016,01,20,13,01,8.10
2016,01,20,13,02,8.10
2016,01,20,13,03,8.10
2016,01,20,13,04,8.10
2016,01,20,13,05,8.10
2016,01,20,13,06,8.10
2016,01,20,13,07,8.10
2016,01,20,13,08,8.10
2016,01,20,13,09,8.10
2016,01,20,13,10,8.10
2016,01,20,13,11,8.10
2016,01,20,13,12,8.10
2016,01,20,13,13,8.10
2016,01,20,13,14,8.10
2016,01,20,13,15,8.10
2016,01,20,13,16,8.20
2016,01,20,13,17,8.20
2016,01,20,13,18,8.20
2016,01,20,13,19,8.20
2016,01,20,13,20,8.20
2016,01,20,13,21,8.20
2016,01,20,13,22,8.20
2016,01,20,13,23,8.20
2016,01,20,13,24,8.20
2016,01,20,13,25,8.20
2016,01,20,13,26,8.20
2016,01,20,13,27,8.20
2016,01,20,13,28,8.20
2016,01,20,13,29,8.20
2016,01,20,13,30,8.20
2016,01,20,13,31,8.30
2016,01,20,13,32,8.30
2016,01,20,13,33,8.30
2016,01,20,13,34,8.30
2016,01,20,13,35,8.30
2016,01,20,13,36,8.30
2016,01,20,13,37,8.30
2016,01,20,13,38,8.30
2016,01,20,13,39,8.30
2016,01,20,13,40,8.30
2016,01,20,13,41,8.30
2016,01,20,13,42,8.30
2016,01,20,13,43,8.30
2016,01,20,13,44,8.40
2016,01,20,13,45,8.40
2016,01,20,13,46,8.40
2016,01,20,13,47,8.40
2016,01,20,13,48,8.40
2016,01,20,13,49,8.40
2016,01,20,13,50,8.40
2016,01,20,13,51,8.50
2016,01,20,13,52,8.50
2016,01,20,13,53,8.50
2016,01,20,13,54,8.50
2016,01,20,13,55,8.50
2016,01,20,13,56,8.50
2016,01,20,13,57,8.50
2016,01,20,13,58,8.40
2016,01,20,13,59,8.40
2016,01,20,14,00,8.40
2016,01,20,14,01,8.40
2016,01,20,14,02,8.40
2016,01,20,14,03,8.40
2016,01,20,14,04,8.40
2016,01,20,14,05,8.40
2016,01,20,14,06,8.40
2016,01,20,14,07,8.40
2016,01,20,14,08,8.40
2016,01,20,14,09,8.40
2016,01,20,14,10,8.40
2016,01,20,14,11,8.40
2016,01,20,14,12,8.40
2016,01,20,14,13,8.40
2016,01,20,14,14,8.40
2016,01,20,14,15,8.40
2016,01,20,14,16,8.40
2016,01,20,14,17,8.40
2016,01,20,14,18,8.40
2016,01,20,14,19,8.40
2016,01,20,14,20,8.50
2016,01,20,14,21,8.50
2016,01,20,14,22,8.50
2016,01,20,14,23,8.60
2016,01,20,14,24,8.60
2016,01,20,14,25,8.60
2016,01,20,14,26,8.60
2016,01,20,14,27,8.60
2016,01,20,14,28,8.60
2016,01,20,14,29,8.60
2016,01,20,14,30,8.60
2016,01,20,14,31,8.70
2016,01,20,14,32,8.70
2016,01,20,14,33,8.70
2016,01,20,14,34,8.70
2016,01,20,14,35,8.70
2016,01,20,14,36,8.70
2016,01,20,14,37,8.70
2016,01,20,14,38,8.70
2016,01,20,14,39,8.70
2016,01,20,14,40,8.70
2016,01,20,14,41,8.70
2016,01,20,14,42,8.70
2016,01,20,14,43,8.70
2016,01,20,14,44,8.70
2016,01,20,14,45,8.70
2016,01,20,14,46,8.70
2016,01,20,14,47,8.70
2016,01,20,14,48,8.70
2016,01,20,14,49,8.70
2016,01,20,14,50,8.70
2016,01,20,14,51,8.70
2016,01,20,14,52,8.70
2016,01,20,14,53,8.70
2016,01,20,14,54,8.70
2016,01,20,14,55,8.70
2016,01,20,14,56,8.70
2016,01,20,14,57,8.70
2016,01,20,14,58,8.70
2016,01,20,14,59,8.60
2016,01,20,15,00,8.60
2016,01,20,15,01,8.60
2016,01,20,15,02,8.60
2016,01,20,15,03,8.60
2016,01,20,15,04,8.50
2016,01,20,15,05,8.50
2016,01,20,15,06,8.40
2016,01,20,15,07,8.40
2016,01,20,15,08,8.40
2016,01,20,15,09,8.40
2016,01,20,15,10,8.40
2016,01,20,15,11,8.40
2016,01,20,15,12,8.40
2016,01,20,15,13,8.40
2016,01,20,15,14,8.40
2016,01,20,15,15,8.40
2016,01,20,15,16,8.40
2016,01,20,15,17,8.40
2016,01,20,15,18,8.40
2016,01,20,15,19,8.40
2016,01,20,15,20,8.40
2016,01,20,15,21,8.40
2016,01,20,15,22,8.40
2016,01,20,15,23,8.40
2016,01,20,15,24,8.40
2016,01,20,15,25,8.40
2016,01,20,15,26,8.40
2016,01,20,15,27,8.40
2016,01,20,15,28,8.40
2016,01,20,15,29,8.40
2016,01,20,15,30,8.40
2016,01,20,15,31,8.40
2016,01,20,15,32,8.40
2016,01,20,15,33,8.40
2016,01,20,15,34,8.40
2016,01,20,15,35,8.40
2016,01,20,15,36,8.40
2016,01,20,15,37,8.40
2016,01,20,15,38,8.40
2016,01,20,15,39,8.40
2016,01,20,15,40,8.40
2016,01,20,15,41,8.40
2016,01,20,15,42,8.40
2016,01,20,15,43,8.40
2016,01,20,15,44,8.40
2016,01,20,15,45,8.40
2016,01,20,15,46,8.30
2016,01,20,15,47,8.30
2016,01,20,15,48,8.30
2016,01,20,15,49,8.30
2016,01,20,15,50,8.30
2016,01,20,15,51,8.30
2016,01,20,15,52,8.30
2016,01,20,15,53,8.30
2016,01,20,15,54,8.30
2016,01,20,15,55,8.30
2016,01,20,15,56,8.30
2016,01,20,15,57,8.30
2016,01,20,15,58,8.30
2016,01,20,15,59,8.30
2016,01,20,16,00,8.20
2016,01,20,16,01,8.30
2016,01,20,16,02,8.30
2016,01,20,16,03,8.30
2016,01,20,16,04,8.30
2016,01,20,16,05,8.20
2016,01,20,16,06,8.20
2016,01,20,16,07,8.20
2016,01,20,16,08,8.20
2016,01,20,16,09,8.20
2016,01,20,16,10,8.20
2016,01,20,16,11,8.20
2016,01,20,16,12,8.20
2016,01,20,16,13,8.30
2016,01,20,16,14,8.20
2016,01,20,16,15,8.30
2016,01,20,16,16,8.30
2016,01,20,16,17,8.30
2016,01,20,16,18,8.30
2016,01,20,16,19,8.30
2016,01,20,16,20,8.30
2016,01,20,16,21,8.30
2016,01,20,16,22,8.30
2016,01,20,16,23,8.30
2016,01,20,16,24,8.40
2016,01,20,16,25,8.40
2016,01,20,16,26,8.40
2016,01,20,16,27,8.50
2016,01,20,16,28,8.50
2016,01,20,16,29,8.60
2016,01,20,16,30,8.60
2016,01,20,16,31,8.60
2016,01,20,16,32,8.70
2016,01,20,16,33,8.70
2016,01,20,16,34,8.70
2016,01,20,16,35,8.70
2016,01,20,16,36,8.80
2016,01,20,16,37,8.80
2016,01,20,16,38,8.80
2016,01,20,16,39,8.80
2016,01,20,16,40,8.90
2016,01,20,16,41,8.90
2016,01,20,16,42,8.90
2016,01,20,16,43,8.90
2016,01,20,16,44,8.90
2016,01,20,16,45,9.00
2016,01,20,16,46,9.00
2016,01,20,16,47,9.00
2016,01,20,16,48,9.00
2016,01,20,16,49,9.10
2016,01,20,16,50,9.10
2016,01,20,16,51,9.10
2016,01,20,16,52,9.10
2016,01,20,16,53,9.10
2016,01,20,16,54,9.10
2016,01,20,16,55,9.10
2016,01,20,16,56,9.10
2016,01,20,16,57,9.10
2016,01,20,16,58,9.10
2016,01,20,16,59,9.10
2016,01,20,17,00,9.10
2016,01,20,17,01,9.10
2016,01,20,17,02,9.20
2016,01,20,17,03,9.20
2016,01,20,17,04,9.20
2016,01,20,17,05,9.20
2016,01,20,17,06,9.20
2016,01,20,17,07,9.20
2016,01,20,17,08,9.20
2016,01,20,17,09,9.20
2016,01,20,17,10,9.20
2016,01,20,17,11,9.20
2016,01,20,17,12,9.20
2016,01,20,17,13,9.20
2016,01,20,17,14,9.20
2016,01,20,17,15,9.20
2016,01,20,17,16,9.20
2016,01,20,17,17,9.20
2016,01,20,17,18,9.20
2016,01,20,17,19,9.20
2016,01,20,17,20,9.20
2016,01,20,17,21,9.20
2016,01,20,17,22,9.20
2016,01,20,17,23,9.20
2016,01,20,17,24,9.20
2016,01,20,17,25,9.20
2016,01,20,17,26,9.20
2016,01,20,17,27,9.20
2016,01,20,17,28,9.20
2016,01,20,17,29,9.20
2016,01,20,17,30,9.20
2016,01,20,17,31,9.20
2016,01,20,17,32,9.20
2016,01,20,17,33,9.20
2016,01,20,17,34,9.20
2016,01,20,17,35,9.20
2016,01,20,17,36,9.20
2016,01,20,17,37,9.20
2016,01,20,17,38,9.20
2016,01,20,17,39,9.20
2016,01,20,17,40,9.20
2016,01,20,17,41,9.20
2016,01,20,17,42,9.20
2016,01,20,17,43,9.20
2016,01,20,17,44,9.20
2016,01,20,17,45,9.20
2016,01,20,17,46,9.20
2016,01,20,17,47,9.20
2016,01,20,17,48,9.20
2016,01,20,17,49,9.20
2016,01,20,17,50,9.20
2016,01,20,17,51,9.20
2016,01,20,17,52,9.20
2016,01,20,17,53,9.20
2016,01,20,17,54,9.20
2016,01,20,17,55,9.20
2016,01,20,17,56,9.20
2016,01,20,17,57,9.20
2016,01,20,17,58,9.20
2016,01,20,17,59,9.20
2016,01,20,18,00,9.20
2016,01,20,18,01,9.20
2016,01,20,18,02,9.20
2016,01,20,18,03,9.20
2016,01,20,18,04,9.20
2016,01,20,18,05,9.20
2016,01,20,18,06,9.20
2016,01,20,18,07,9.20
2016,01,20,18,08,9.20
2016,01,20,18,09,9.20
2016,01,20,18,10,9.20
2016,01,20,18,11,9.20
2016,01,20,18,12,9.20
2016,01,20,18,13,9.20
2016,01,20,18,14,9.20
2016,01,20,18,15,9.20
2016,01,20,18,16,9.20
2016,01,20,18,17,9.20
2016,01,20,18,18,9.20
2016,01,20,18,19,9.20
2016,01,20,18,20,9.20
2016,01,20,18,21,9.20
2016,01,20,18,22,9.20
2016,01,20,18,23,9.20
2016,01,20,18,24,9.20
2016,01,20,18,25,9.20
2016,01,20,18,26,9.20
2016,01,20,18,27,9.20
2016,01,20,18,28,9.30
2016,01,20,18,29,9.30
2016,01,20,18,30,9.30
2016,01,20,18,31,9.30
2016,01,20,18,32,9.30
2016,01,20,18,33,9.30
2016,01,20,18,34,9.30
2016,01,20,18,35,9.40
2016,01,20,18,36,9.40
2016,01,20,18,37,9.40
2016,01,20,18,38,9.40
2016,01,20,18,39,9.40
2016,01,20,18,40,9.40
2016,01,20,18,41,9.40
2016,01,20,18,42,9.50
2016,01,20,18,43,9.50
2016,01,20,18,44,9.60
2016,01,20,18,45,9.60
2016,01,20,18,46,9.60
2016,01,20,18,47,9.60
2016,01,20,18,48,9.60
2016,01,20,18,49,9.60
2016,01,20,18,50,9.60
2016,01,20,18,51,9.70
2016,01,20,18,52,9.70
2016,01,20,18,53,9.70
2016,01,20,18,54,9.70
2016,01,20,18,55,9.70
2016,01,20,18,56,9.70
2016,01,20,18,57,9.60
2016,01,20,18,58,9.60
2016,01,20,18,59,9.50
2016,01,20,19,00,9.50
2016,01,20,19,01,9.50
2016,01,20,19,02,9.50
2016,01,20,19,03,9.50
2016,01,20,19,04,9.50
2016,01,20,19,05,9.60
2016,01,20,19,06,9.60
2016,01,20,19,07,9.60
2016,01,20,19,08,9.60
2016,01,20,19,09,9.50
2016,01,20,19,10,9.50
2016,01,20,19,11,9.50
2016,01,20,19,12,9.50
2016,01,20,19,13,9.50
2016,01,20,19,14,9.50
2016,01,20,19,15,9.50
2016,01,20,19,16,9.50
2016,01,20,19,17,9.50
2016,01,20,19,18,9.50
2016,01,20,19,19,9.50
2016,01,20,19,20,9.50
2016,01,20,19,21,9.50
2016,01,20,19,22,9.50
2016,01,20,19,23,9.50
2016,01,20,19,24,9.50
2016,01,20,19,25,9.40
2016,01,20,19,26,9.40
2016,01,20,19,27,9.50
2016,01,20,19,28,9.50
2016,01,20,19,29,9.60
2016,01,20,19,30,9.60
2016,01,20,19,31,9.70
2016,01,20,19,32,9.70
2016,01,20,19,33,9.70
2016,01,20,19,34,9.80
2016,01,20,19,35,9.80
2016,01,20,19,36,9.90
2016,01,20,19,37,9.90
2016,01,20,19,38,10.00
2016,01,20,19,39,10.00
2016,01,20,19,40,10.00
2016,01,20,19,41,10.00
2016,01,20,19,42,10.00
2016,01,20,19,43,9.90
2016,01,20,19,44,9.90
2016,01,20,19,45,9.90
2016,01,20,19,46,9.80
2016,01,20,19,47,9.80
2016,01,20,19,48,9.70
2016,01,20,19,49,9.70
2016,01,20,19,50,9.70
2016,01,20,19,51,9.60
2016,01,20,19,52,9.60
2016,01,20,19,53,9.60
2016,01,20,19,54,9.50
2016,01,20,19,55,9.50
2016,01,20,19,56,9.40
2016,01,20,19,57,9.40
2016,01,20,19,58,9.40
2016,01,20,19,59,9.30
2016,01,20,20,00,9.30
2016,01,20,20,01,9.30
2016,01,20,20,02,9.20
2016,01,20,20,03,9.20
2016,01,20,20,04,9.20
2016,01,20,20,05,9.10
2016,01,20,20,06,9.10
2016,01,20,20,07,9.10
2016,01,20,20,08,9.00
2016,01,20,20,09,9.00
2016,01,20,20,10,9.00
2016,01,20,20,11,9.00
2016,01,20,20,12,9.00
2016,01,20,20,13,8.90
2016,01,20,20,14,8.90
2016,01,20,20,15,8.90
2016,01,20,20,16,8.90
2016,01,20,20,17,8.90
2016,01,20,20,18,8.80
2016,01,20,20,19,8.80
2016,01,20,20,20,8.80